owner,sensor,date,latitude,longitude,vertical_datum,wind_speed,wind_to_direction,wind_speed_of_gust,qcFlag 
TCOON,ioos:station:TCOON:005:1,2009-03-01T00:00:00Z,27.6346,-97.2370,0.0,11.3,357.0,15.1,'11111222,11111222,11111222' 
TCOON,ioos:station:TCOON:005:1,2009-03-01T01:00:00Z,27.6346,-97.2370,0.0,10.3,353.0,13.6,'11111222,11111222,11111222' 
TCOON,ioos:station:TCOON:005:1,2009-03-01T03:00:00Z,27.6346,-97.2370,0.0,11.1,360.0,13.8,'11111222,11144222,11111222' 
TCOON,ioos:station:TCOON:005:1,2009-03-01T04:00:00Z,27.6346,-97.2370,0.0,9.6,360.0,11.6,'11111222,11144222,11111222' 
TCOON,ioos:station:TCOON:005:1,2009-03-01T05:00:00Z,27.6346,-97.2370,0.0,10.3,3.0,14.0,'11111222,11111222,11111222' 
TCOON,ioos:station:TCOON:005:1,2009-03-01T06:00:00Z,27.6346,-97.2370,0.0,10.0,6.0,13.6,'11111222,11111222,11111222' 
TCOON,ioos:station:TCOON:005:1,2009-03-01T07:00:00Z,27.6346,-97.2370,0.0,10.4,6.0,13.7,'11111222,11111222,11111222' 
TCOON,ioos:station:TCOON:005:1,2009-03-01T08:00:00Z,27.6346,-97.2370,0.0,11.4,358.0,14.5,'11111222,11111222,11111222' 
TCOON,ioos:station:TCOON:005:1,2009-03-01T09:00:00Z,27.6346,-97.2370,0.0,10.1,359.0,12.1,'11111222,11111222,11111222' 
TCOON,ioos:station:TCOON:005:1,2009-03-01T10:00:00Z,27.6346,-97.2370,0.0,12.4,357.0,14.7,'11111222,11111222,11111222' 
TCOON,ioos:station:TCOON:005:1,2009-03-01T11:00:00Z,27.6346,-97.2370,0.0,12.8,2.0,16.3,'11111222,11111222,11111222' 
TCOON,ioos:station:TCOON:005:1,2009-03-01T12:00:00Z,27.6346,-97.2370,0.0,12.0,360.0,15.2,'11111222,11144222,11111222' 
TCOON,ioos:station:TCOON:005:1,2009-03-01T13:00:00Z,27.6346,-97.2370,0.0,12.4,352.0,14.4,'11111222,11111222,11111222' 
TCOON,ioos:station:TCOON:005:1,2009-03-01T14:00:00Z,27.6346,-97.2370,0.0,11.7,352.0,14.1,'11111222,11111222,11111222' 
TCOON,ioos:station:TCOON:005:1,2009-03-01T15:00:00Z,27.6346,-97.2370,0.0,10.2,351.0,13.2,'11111222,11111222,11111222' 
TCOON,ioos:station:TCOON:005:1,2009-03-01T16:00:00Z,27.6346,-97.2370,0.0,9.2,352.0,11.5,'11111222,11111222,11111222' 
TCOON,ioos:station:TCOON:005:1,2009-03-01T17:00:00Z,27.6346,-97.2370,0.0,8.5,345.0,10.2,'11111222,11111222,11111222' 
TCOON,ioos:station:TCOON:005:1,2009-03-01T18:00:00Z,27.6346,-97.2370,0.0,8.6,356.0,10.1,'11111222,11111222,11111222' 
TCOON,ioos:station:TCOON:005:1,2009-03-01T19:00:00Z,27.6346,-97.2370,0.0,7.5,349.0,28.6,'11111222,11111222,11111222' 
TCOON,ioos:station:TCOON:005:1,2009-03-01T20:00:00Z,27.6346,-97.2370,0.0,6.0,347.0,8.2,'11111222,11111222,11111222' 
TCOON,ioos:station:TCOON:005:1,2009-03-01T21:00:00Z,27.6346,-97.2370,0.0,6.6,346.0,7.8,'11111222,11111222,11111222' 
TCOON,ioos:station:TCOON:005:1,2009-03-01T22:00:00Z,27.6346,-97.2370,0.0,4.4,35.0,5.7,'11111222,11111222,11111222' 
TCOON,ioos:station:TCOON:005:1,2009-03-01T23:00:00Z,27.6346,-97.2370,0.0,4.8,36.0,5.7,'11111222,11111222,11111222' 
TCOON,ioos:station:TCOON:005:1,2009-03-02T00:00:00Z,27.6346,-97.2370,0.0,3.8,43.0,4.5,'11111222,11111222,11111222' 
TCOON,ioos:station:TCOON:005:1,2009-03-02T01:00:00Z,27.6346,-97.2370,0.0,2.1,76.0,2.4,'11111222,11111222,11111222' 
TCOON,ioos:station:TCOON:005:1,2009-03-02T02:00:00Z,27.6346,-97.2370,0.0,1.2,71.0,1.5,'11111222,11111222,11111222' 
TCOON,ioos:station:TCOON:005:1,2009-03-02T03:00:00Z,27.6346,-97.2370,0.0,0.9,85.0,1.2,'11111222,11111222,11111222' 
TCOON,ioos:station:TCOON:005:1,2009-03-02T04:00:00Z,27.6346,-97.2370,0.0,0.1,264.0,0.3,'11111222,11111222,11111222' 
TCOON,ioos:station:TCOON:005:1,2009-03-02T05:00:00Z,27.6346,-97.2370,0.0,0.2,258.0,0.4,'11111222,11111222,11111222' 
TCOON,ioos:station:TCOON:005:1,2009-03-02T06:00:00Z,27.6346,-97.2370,0.0,2.3,248.0,2.5,'11111222,11111222,11111222' 
TCOON,ioos:station:TCOON:005:1,2009-03-02T07:00:00Z,27.6346,-97.2370,0.0,1.9,245.0,2.1,'11111222,11111222,11111222' 
TCOON,ioos:station:TCOON:005:1,2009-03-02T08:00:00Z,27.6346,-97.2370,0.0,1.3,237.0,1.4,'11111222,11111222,11111222' 
TCOON,ioos:station:TCOON:005:1,2009-03-02T09:00:00Z,27.6346,-97.2370,0.0,1.5,282.0,2.0,'11111222,11111222,11111222' 
TCOON,ioos:station:TCOON:005:1,2009-03-02T10:00:00Z,27.6346,-97.2370,0.0,1.8,270.0,1.9,'11111222,11111222,11111222' 
TCOON,ioos:station:TCOON:005:1,2009-03-02T11:00:00Z,27.6346,-97.2370,0.0,2.1,315.0,2.4,'11111222,11111222,11111222' 
TCOON,ioos:station:TCOON:005:1,2009-03-02T12:00:00Z,27.6346,-97.2370,0.0,1.9,257.0,2.1,'11111222,11111222,11111222' 
TCOON,ioos:station:TCOON:005:1,2009-03-02T13:00:00Z,27.6346,-97.2370,0.0,1.7,281.0,2.5,'11111222,11111222,11111222' 
TCOON,ioos:station:TCOON:005:1,2009-03-02T14:00:00Z,27.6346,-97.2370,0.0,2.1,286.0,2.8,'11111222,11111222,11111222' 
TCOON,ioos:station:TCOON:005:1,2009-03-02T15:00:00Z,27.6346,-97.2370,0.0,3.2,303.0,3.6,'11111222,11111222,11111222' 
TCOON,ioos:station:TCOON:005:1,2009-03-02T16:00:00Z,27.6346,-97.2370,0.0,2.9,322.0,3.1,'11111222,11111222,11111222' 
TCOON,ioos:station:TCOON:005:1,2009-03-02T17:00:00Z,27.6346,-97.2370,0.0,2.5,329.0,2.8,'11111222,11111222,11111222' 
TCOON,ioos:station:TCOON:005:1,2009-03-02T18:00:00Z,27.6346,-97.2370,0.0,4.3,74.0,5.6,'11111222,11111222,11111222' 
TCOON,ioos:station:TCOON:005:1,2009-03-02T19:00:00Z,27.6346,-97.2370,0.0,5.0,97.0,6.6,'11111222,11111222,11111222' 
TCOON,ioos:station:TCOON:005:1,2009-03-02T21:00:00Z,27.6346,-97.2370,0.0,5.9,90.0,7.6,'11111222,11111222,11111222' 
TCOON,ioos:station:TCOON:005:1,2009-03-02T22:00:00Z,27.6346,-97.2370,0.0,7.0,95.0,8.4,'11111222,11111222,11111222' 
TCOON,ioos:station:TCOON:005:1,2009-03-02T23:00:00Z,27.6346,-97.2370,0.0,6.6,101.0,7.7,'11111222,11111222,11111222' 
TCOON,ioos:station:TCOON:005:1,2009-03-03T00:00:00Z,27.6346,-97.2370,0.0,4.7,125.0,6.6,'11111222,11111222,11111222' 
TCOON,ioos:station:TCOON:005:1,2009-03-03T01:00:00Z,27.6346,-97.2370,0.0,5.3,125.0,6.5,'11111222,11111222,11111222' 
TCOON,ioos:station:TCOON:005:1,2009-03-03T02:00:00Z,27.6346,-97.2370,0.0,4.6,130.0,5.9,'11111222,11111222,11111222' 
TCOON,ioos:station:TCOON:005:1,2009-03-03T03:00:00Z,27.6346,-97.2370,0.0,4.6,131.0,6.3,'11111222,11111222,11111222' 
TCOON,ioos:station:TCOON:005:1,2009-03-03T04:00:00Z,27.6346,-97.2370,0.0,3.5,136.0,4.3,'11111222,11111222,11111222' 
TCOON,ioos:station:TCOON:005:1,2009-03-03T05:00:00Z,27.6346,-97.2370,0.0,3.7,148.0,5.3,'11111222,11111222,11111222' 
TCOON,ioos:station:TCOON:005:1,2009-03-03T06:00:00Z,27.6346,-97.2370,0.0,4.0,153.0,5.2,'11111222,11111222,11111222' 
TCOON,ioos:station:TCOON:005:1,2009-03-03T07:00:00Z,27.6346,-97.2370,0.0,2.8,157.0,3.5,'11111222,11111222,11111222' 
TCOON,ioos:station:TCOON:005:1,2009-03-03T08:00:00Z,27.6346,-97.2370,0.0,3.1,157.0,4.7,'11111222,11111222,11111222' 
TCOON,ioos:station:TCOON:005:1,2009-03-03T09:00:00Z,27.6346,-97.2370,0.0,2.7,157.0,3.6,'11111222,11111222,11111222' 
TCOON,ioos:station:TCOON:005:1,2009-03-03T10:00:00Z,27.6346,-97.2370,0.0,1.7,151.0,2.6,'11111222,11111222,11111222' 
TCOON,ioos:station:TCOON:005:1,2009-03-03T11:00:00Z,27.6346,-97.2370,0.0,2.0,149.0,2.5,'11111222,11111222,11111222' 
TCOON,ioos:station:TCOON:005:1,2009-03-03T12:00:00Z,27.6346,-97.2370,0.0,1.9,149.0,2.3,'11111222,11111222,11111222' 
TCOON,ioos:station:TCOON:005:1,2009-03-03T13:00:00Z,27.6346,-97.2370,0.0,1.4,82.0,1.5,'11111222,11111222,11111222' 
TCOON,ioos:station:TCOON:005:1,2009-03-03T14:00:00Z,27.6346,-97.2370,0.0,1.5,106.0,1.6,'11111222,11111222,11111222' 
TCOON,ioos:station:TCOON:005:1,2009-03-03T15:00:00Z,27.6346,-97.2370,0.0,3.8,146.0,4.8,'11111222,11111222,11111222' 
TCOON,ioos:station:TCOON:005:1,2009-03-03T16:00:00Z,27.6346,-97.2370,0.0,5.6,141.0,6.8,'11111222,11111222,11111222' 
TCOON,ioos:station:TCOON:005:1,2009-03-03T17:00:00Z,27.6346,-97.2370,0.0,6.2,143.0,7.3,'11111222,11111222,11111222' 
TCOON,ioos:station:TCOON:005:1,2009-03-03T18:00:00Z,27.6346,-97.2370,0.0,6.0,118.0,7.2,'11111222,11111222,11111222' 
TCOON,ioos:station:TCOON:005:1,2009-03-03T19:00:00Z,27.6346,-97.2370,0.0,6.7,135.0,8.6,'11111222,11111222,11111222' 
TCOON,ioos:station:TCOON:005:1,2009-03-03T20:00:00Z,27.6346,-97.2370,0.0,6.4,135.0,8.8,'11111222,11111222,11111222' 
TCOON,ioos:station:TCOON:005:1,2009-03-03T21:00:00Z,27.6346,-97.2370,0.0,6.1,139.0,7.9,'11111222,11111222,11111222' 
TCOON,ioos:station:TCOON:005:1,2009-03-03T22:00:00Z,27.6346,-97.2370,0.0,6.6,140.0,8.1,'11111222,11111222,11111222' 
TCOON,ioos:station:TCOON:005:1,2009-03-03T23:00:00Z,27.6346,-97.2370,0.0,6.7,142.0,99.0,'11111222,11111222,11144222' 
TCOON,ioos:station:TCOON:005:1,2009-03-04T00:00:00Z,27.6346,-97.2370,0.0,5.7,144.0,7.5,'11111222,11111222,11111222' 
TCOON,ioos:station:TCOON:005:1,2009-03-04T01:00:00Z,27.6346,-97.2370,0.0,5.0,140.0,7.0,'11111222,11111222,11111222' 
TCOON,ioos:station:TCOON:005:1,2009-03-04T02:00:00Z,27.6346,-97.2370,0.0,5.3,145.0,6.7,'11111222,11111222,11111222' 
TCOON,ioos:station:TCOON:005:1,2009-03-04T03:00:00Z,27.6346,-97.2370,0.0,5.1,150.0,7.4,'11111222,11111222,11111222' 
TCOON,ioos:station:TCOON:005:1,2009-03-04T04:00:00Z,27.6346,-97.2370,0.0,4.5,154.0,5.9,'11111222,11111222,11111222' 
TCOON,ioos:station:TCOON:005:1,2009-03-04T05:00:00Z,27.6346,-97.2370,0.0,4.2,156.0,5.6,'11111222,11111222,11111222' 
TCOON,ioos:station:TCOON:005:1,2009-03-04T06:00:00Z,27.6346,-97.2370,0.0,4.3,154.0,5.6,'11111222,11111222,11111222' 
TCOON,ioos:station:TCOON:005:1,2009-03-04T07:00:00Z,27.6346,-97.2370,0.0,4.6,154.0,6.6,'11111222,11111222,11111222' 
TCOON,ioos:station:TCOON:005:1,2009-03-04T08:00:00Z,27.6346,-97.2370,0.0,4.9,158.0,6.1,'11111222,11111222,11111222' 
TCOON,ioos:station:TCOON:005:1,2009-03-04T09:00:00Z,27.6346,-97.2370,0.0,4.1,166.0,5.6,'11111222,11111222,11111222' 
TCOON,ioos:station:TCOON:005:1,2009-03-04T10:00:00Z,27.6346,-97.2370,0.0,4.7,167.0,6.4,'11111222,11111222,11111222' 
TCOON,ioos:station:TCOON:005:1,2009-03-04T11:00:00Z,27.6346,-97.2370,0.0,5.0,163.0,6.8,'11111222,11111222,11111222' 
TCOON,ioos:station:TCOON:005:1,2009-03-04T12:00:00Z,27.6346,-97.2370,0.0,4.3,153.0,6.3,'11111222,11111222,11111222' 
TCOON,ioos:station:TCOON:005:1,2009-03-04T13:00:00Z,27.6346,-97.2370,0.0,4.1,151.0,5.6,'11111222,11111222,11111222' 
TCOON,ioos:station:TCOON:005:1,2009-03-04T14:00:00Z,27.6346,-97.2370,0.0,4.9,149.0,6.8,'11111222,11111222,11111222' 
TCOON,ioos:station:TCOON:005:1,2009-03-04T15:00:00Z,27.6346,-97.2370,0.0,5.3,143.0,40.0,'11111222,11111222,11111222' 
TCOON,ioos:station:TCOON:005:1,2009-03-04T16:00:00Z,27.6346,-97.2370,0.0,6.5,150.0,99.0,'11111222,11111222,11144222' 
TCOON,ioos:station:TCOON:005:1,2009-03-04T17:00:00Z,27.6346,-97.2370,0.0,6.4,149.0,8.7,'11111222,11111222,11111222' 
TCOON,ioos:station:TCOON:005:1,2009-03-04T18:00:00Z,27.6346,-97.2370,0.0,7.2,151.0,10.2,'11111222,11111222,11111222' 
TCOON,ioos:station:TCOON:005:1,2009-03-04T19:00:00Z,27.6346,-97.2370,0.0,8.0,146.0,10.4,'11111222,11111222,11111222' 
TCOON,ioos:station:TCOON:005:1,2009-03-04T20:00:00Z,27.6346,-97.2370,0.0,8.5,140.0,11.4,'11111222,11111222,11111222' 
TCOON,ioos:station:TCOON:005:1,2009-03-04T21:00:00Z,27.6346,-97.2370,0.0,8.5,139.0,10.9,'11111222,11111222,11111222' 
TCOON,ioos:station:TCOON:005:1,2009-03-04T22:00:00Z,27.6346,-97.2370,0.0,8.6,136.0,11.3,'11111222,11111222,11111222' 
TCOON,ioos:station:TCOON:005:1,2009-03-04T23:00:00Z,27.6346,-97.2370,0.0,7.3,141.0,9.6,'11111222,11111222,11111222' 
TCOON,ioos:station:TCOON:005:1,2009-03-05T00:00:00Z,27.6346,-97.2370,0.0,7.5,143.0,10.2,'11111222,11111222,11111222' 
TCOON,ioos:station:TCOON:005:1,2009-03-05T01:00:00Z,27.6346,-97.2370,0.0,5.4,141.0,7.6,'11111222,11111222,11111222' 
TCOON,ioos:station:TCOON:005:1,2009-03-05T02:00:00Z,27.6346,-97.2370,0.0,5.3,139.0,7.4,'11111222,11111222,11111222' 
TCOON,ioos:station:TCOON:005:1,2009-03-05T03:00:00Z,27.6346,-97.2370,0.0,5.4,146.0,7.9,'11111222,11111222,11111222' 
TCOON,ioos:station:TCOON:005:1,2009-03-05T04:00:00Z,27.6346,-97.2370,0.0,4.9,156.0,6.6,'11111222,11111222,11111222' 
TCOON,ioos:station:TCOON:005:1,2009-03-05T05:00:00Z,27.6346,-97.2370,0.0,4.4,155.0,5.9,'11111222,11111222,11111222' 
TCOON,ioos:station:TCOON:005:1,2009-03-05T06:00:00Z,27.6346,-97.2370,0.0,5.8,153.0,7.9,'11111222,11111222,11111222' 
TCOON,ioos:station:TCOON:005:1,2009-03-05T07:00:00Z,27.6346,-97.2370,0.0,5.9,156.0,8.1,'11111222,11111222,11111222' 
TCOON,ioos:station:TCOON:005:1,2009-03-05T08:00:00Z,27.6346,-97.2370,0.0,5.9,153.0,7.9,'11111222,11111222,11111222' 
TCOON,ioos:station:TCOON:005:1,2009-03-05T09:00:00Z,27.6346,-97.2370,0.0,5.6,153.0,7.9,'11111222,11111222,11111222' 
TCOON,ioos:station:TCOON:005:1,2009-03-05T10:00:00Z,27.6346,-97.2370,0.0,5.5,154.0,7.9,'11111222,11111222,11111222' 
TCOON,ioos:station:TCOON:005:1,2009-03-05T11:00:00Z,27.6346,-97.2370,0.0,5.1,153.0,7.5,'11111222,11111222,11111222' 
TCOON,ioos:station:TCOON:005:1,2009-03-05T12:00:00Z,27.6346,-97.2370,0.0,4.6,149.0,6.4,'11111222,11111222,11111222' 
TCOON,ioos:station:TCOON:005:1,2009-03-05T13:00:00Z,27.6346,-97.2370,0.0,4.2,145.0,5.6,'11111222,11111222,11111222' 
TCOON,ioos:station:TCOON:005:1,2009-03-05T14:00:00Z,27.6346,-97.2370,0.0,5.4,150.0,8.3,'11111222,11111222,11111222' 
TCOON,ioos:station:TCOON:005:1,2009-03-05T15:00:00Z,27.6346,-97.2370,0.0,5.1,150.0,8.3,'11111222,11111222,11111222' 
TCOON,ioos:station:TCOON:005:1,2009-03-05T16:00:00Z,27.6346,-97.2370,0.0,5.2,152.0,8.5,'11111222,11111222,11111222' 
TCOON,ioos:station:TCOON:005:1,2009-03-05T17:00:00Z,27.6346,-97.2370,0.0,7.3,148.0,9.8,'11111222,11111222,11111222' 
TCOON,ioos:station:TCOON:005:1,2009-03-05T18:00:00Z,27.6346,-97.2370,0.0,5.6,144.0,8.9,'11111222,11111222,11111222' 
TCOON,ioos:station:TCOON:005:1,2009-03-05T19:00:00Z,27.6346,-97.2370,0.0,7.1,136.0,9.2,'11111222,11111222,11111222' 
TCOON,ioos:station:TCOON:005:1,2009-03-05T20:00:00Z,27.6346,-97.2370,0.0,7.0,130.0,9.5,'11111222,11111222,11111222' 
TCOON,ioos:station:TCOON:005:1,2009-03-05T21:00:00Z,27.6346,-97.2370,0.0,8.0,137.0,10.9,'11111222,11111222,11111222' 
TCOON,ioos:station:TCOON:005:1,2009-03-05T22:00:00Z,27.6346,-97.2370,0.0,7.8,131.0,11.2,'11111222,11111222,11111222' 
TCOON,ioos:station:TCOON:005:1,2009-03-05T23:00:00Z,27.6346,-97.2370,0.0,8.3,131.0,10.8,'11111222,11111222,11111222' 
TCOON,ioos:station:TCOON:005:1,2009-03-06T00:00:00Z,27.6346,-97.2370,0.0,7.9,131.0,11.2,'11111222,11111222,11111222' 
TCOON,ioos:station:TCOON:005:1,2009-03-06T01:00:00Z,27.6346,-97.2370,0.0,5.9,132.0,7.6,'11111222,11111222,11111222' 
TCOON,ioos:station:TCOON:005:1,2009-03-06T02:00:00Z,27.6346,-97.2370,0.0,5.5,133.0,7.9,'11111222,11111222,11111222' 
TCOON,ioos:station:TCOON:005:1,2009-03-06T03:00:00Z,27.6346,-97.2370,0.0,5.2,142.0,6.9,'11111222,11111222,11111222' 
TCOON,ioos:station:TCOON:005:1,2009-03-06T04:00:00Z,27.6346,-97.2370,0.0,5.6,140.0,7.5,'11111222,11111222,11111222' 
TCOON,ioos:station:TCOON:005:1,2009-03-06T05:00:00Z,27.6346,-97.2370,0.0,5.6,143.0,7.8,'11111222,11111222,11111222' 
TCOON,ioos:station:TCOON:005:1,2009-03-06T06:00:00Z,27.6346,-97.2370,0.0,5.5,145.0,7.4,'11111222,11111222,11111222' 
TCOON,ioos:station:TCOON:005:1,2009-03-06T07:00:00Z,27.6346,-97.2370,0.0,5.3,149.0,7.5,'11111222,11111222,11111222' 
TCOON,ioos:station:TCOON:005:1,2009-03-06T08:00:00Z,27.6346,-97.2370,0.0,4.8,155.0,6.5,'11111222,11111222,11111222' 
TCOON,ioos:station:TCOON:005:1,2009-03-06T09:00:00Z,27.6346,-97.2370,0.0,5.3,151.0,7.2,'11111222,11111222,11111222' 
TCOON,ioos:station:TCOON:005:1,2009-03-06T10:00:00Z,27.6346,-97.2370,0.0,5.6,151.0,7.5,'11111222,11111222,11111222' 
TCOON,ioos:station:TCOON:005:1,2009-03-06T11:00:00Z,27.6346,-97.2370,0.0,5.0,153.0,6.3,'11111222,11111222,11111222' 
TCOON,ioos:station:TCOON:005:1,2009-03-06T12:00:00Z,27.6346,-97.2370,0.0,5.8,152.0,7.5,'11111222,11111222,11111222' 
TCOON,ioos:station:TCOON:005:1,2009-03-06T13:00:00Z,27.6346,-97.2370,0.0,4.8,150.0,6.7,'11111222,11111222,11111222' 
TCOON,ioos:station:TCOON:005:1,2009-03-06T14:00:00Z,27.6346,-97.2370,0.0,5.5,151.0,7.6,'11111222,11111222,11111222' 
TCOON,ioos:station:TCOON:005:1,2009-03-06T15:00:00Z,27.6346,-97.2370,0.0,6.3,156.0,9.2,'11111222,11111222,11111222' 
TCOON,ioos:station:TCOON:005:1,2009-03-06T16:00:00Z,27.6346,-97.2370,0.0,7.0,155.0,10.6,'11111222,11111222,11111222' 
TCOON,ioos:station:TCOON:005:1,2009-03-06T17:00:00Z,27.6346,-97.2370,0.0,7.5,146.0,10.3,'11111222,11111222,11111222' 
TCOON,ioos:station:TCOON:005:1,2009-03-06T18:00:00Z,27.6346,-97.2370,0.0,7.5,148.0,11.0,'11111222,11111222,11111222' 
TCOON,ioos:station:TCOON:005:1,2009-03-06T19:00:00Z,27.6346,-97.2370,0.0,7.2,149.0,10.2,'11111222,11111222,11111222' 
TCOON,ioos:station:TCOON:005:1,2009-03-06T20:00:00Z,27.6346,-97.2370,0.0,6.6,139.0,8.8,'11111222,11111222,11111222' 
TCOON,ioos:station:TCOON:005:1,2009-03-06T21:00:00Z,27.6346,-97.2370,0.0,7.9,135.0,9.8,'11111222,11111222,11111222' 
TCOON,ioos:station:TCOON:005:1,2009-03-06T22:00:00Z,27.6346,-97.2370,0.0,8.7,128.0,12.1,'11111222,11111222,11111222' 
TCOON,ioos:station:TCOON:005:1,2009-03-06T23:00:00Z,27.6346,-97.2370,0.0,6.7,134.0,9.0,'11111222,11111222,11111222' 
TCOON,ioos:station:TCOON:005:1,2009-03-07T00:00:00Z,27.6346,-97.2370,0.0,6.0,128.0,8.3,'11111222,11111222,11111222' 
TCOON,ioos:station:TCOON:005:1,2009-03-07T01:00:00Z,27.6346,-97.2370,0.0,6.6,133.0,8.2,'11111222,11111222,11111222' 
TCOON,ioos:station:TCOON:005:1,2009-03-07T02:00:00Z,27.6346,-97.2370,0.0,6.4,132.0,8.5,'11111222,11111222,11111222' 
TCOON,ioos:station:TCOON:005:1,2009-03-07T03:00:00Z,27.6346,-97.2370,0.0,5.7,132.0,7.2,'11111222,11111222,11111222' 
TCOON,ioos:station:TCOON:005:1,2009-03-07T04:00:00Z,27.6346,-97.2370,0.0,7.7,135.0,10.3,'11111222,11111222,11111222' 
TCOON,ioos:station:TCOON:005:1,2009-03-07T05:00:00Z,27.6346,-97.2370,0.0,6.2,141.0,9.0,'11111222,11111222,11111222' 
TCOON,ioos:station:TCOON:005:1,2009-03-07T06:00:00Z,27.6346,-97.2370,0.0,6.7,141.0,8.3,'11111222,11111222,11111222' 
TCOON,ioos:station:TCOON:005:1,2009-03-07T07:00:00Z,27.6346,-97.2370,0.0,6.0,140.0,9.1,'11111222,11111222,11111222' 
TCOON,ioos:station:TCOON:005:1,2009-03-07T08:00:00Z,27.6346,-97.2370,0.0,6.3,139.0,9.0,'11111222,11111222,11111222' 
TCOON,ioos:station:TCOON:005:1,2009-03-07T09:00:00Z,27.6346,-97.2370,0.0,8.5,140.0,13.4,'11111222,11111222,11111222' 
TCOON,ioos:station:TCOON:005:1,2009-03-07T10:00:00Z,27.6346,-97.2370,0.0,5.9,146.0,8.2,'11111222,11111222,11111222' 
TCOON,ioos:station:TCOON:005:1,2009-03-07T11:00:00Z,27.6346,-97.2370,0.0,6.0,146.0,7.2,'11111222,11111222,11111222' 
TCOON,ioos:station:TCOON:005:1,2009-03-07T12:00:00Z,27.6346,-97.2370,0.0,4.1,151.0,5.4,'11111222,11111222,11111222' 
TCOON,ioos:station:TCOON:005:1,2009-03-07T13:00:00Z,27.6346,-97.2370,0.0,3.5,149.0,4.3,'11111222,11111222,11111222' 
TCOON,ioos:station:TCOON:005:1,2009-03-07T14:00:00Z,27.6346,-97.2370,0.0,4.4,141.0,5.5,'11111222,11111222,11111222' 
TCOON,ioos:station:TCOON:005:1,2009-03-07T15:00:00Z,27.6346,-97.2370,0.0,6.0,155.0,8.2,'11111222,11111222,11111222' 
TCOON,ioos:station:TCOON:005:1,2009-03-07T16:00:00Z,27.6346,-97.2370,0.0,7.3,145.0,10.2,'11111222,11111222,11111222' 
TCOON,ioos:station:TCOON:005:1,2009-03-07T17:00:00Z,27.6346,-97.2370,0.0,7.3,146.0,10.3,'11111222,11111222,11111222' 
TCOON,ioos:station:TCOON:005:1,2009-03-07T18:00:00Z,27.6346,-97.2370,0.0,7.3,145.0,9.9,'11111222,11111222,11111222' 
TCOON,ioos:station:TCOON:005:1,2009-03-07T19:00:00Z,27.6346,-97.2370,0.0,7.1,144.0,9.8,'11111222,11111222,11111222' 
TCOON,ioos:station:TCOON:005:1,2009-03-07T20:00:00Z,27.6346,-97.2370,0.0,8.1,144.0,18.2,'11111222,11111222,11111222' 
TCOON,ioos:station:TCOON:005:1,2009-03-07T21:00:00Z,27.6346,-97.2370,0.0,8.7,142.0,11.3,'11111222,11111222,11111222' 
TCOON,ioos:station:TCOON:005:1,2009-03-07T22:00:00Z,27.6346,-97.2370,0.0,7.6,133.0,10.0,'11111222,11111222,11111222' 
TCOON,ioos:station:TCOON:005:1,2009-03-07T23:00:00Z,27.6346,-97.2370,0.0,8.0,128.0,10.4,'11111222,11111222,11111222' 
TCOON,ioos:station:TCOON:005:1,2009-03-08T00:00:00Z,27.6346,-97.2370,0.0,5.5,130.0,8.0,'11111222,11111222,11111222' 
TCOON,ioos:station:TCOON:005:1,2009-03-08T01:00:00Z,27.6346,-97.2370,0.0,4.8,123.0,6.2,'11111222,11111222,11111222' 
TCOON,ioos:station:TCOON:005:1,2009-03-08T02:00:00Z,27.6346,-97.2370,0.0,6.5,130.0,8.8,'11111222,11111222,11111222' 
TCOON,ioos:station:TCOON:005:1,2009-03-08T03:00:00Z,27.6346,-97.2370,0.0,7.4,140.0,9.9,'11111222,11111222,11111222' 
TCOON,ioos:station:TCOON:005:1,2009-03-08T04:00:00Z,27.6346,-97.2370,0.0,6.6,141.0,8.3,'11111222,11111222,11111222' 
TCOON,ioos:station:TCOON:005:1,2009-03-08T05:00:00Z,27.6346,-97.2370,0.0,7.1,144.0,10.8,'11111222,11111222,11111222' 
TCOON,ioos:station:TCOON:005:1,2009-03-08T06:00:00Z,27.6346,-97.2370,0.0,5.8,145.0,7.7,'11111222,11111222,11111222' 
TCOON,ioos:station:TCOON:005:1,2009-03-08T07:00:00Z,27.6346,-97.2370,0.0,6.7,148.0,8.7,'11111222,11111222,11111222' 
TCOON,ioos:station:TCOON:005:1,2009-03-08T08:00:00Z,27.6346,-97.2370,0.0,6.9,152.0,9.1,'11111222,11111222,11111222' 
TCOON,ioos:station:TCOON:005:1,2009-03-08T09:00:00Z,27.6346,-97.2370,0.0,5.1,157.0,7.1,'11111222,11111222,11111222' 
TCOON,ioos:station:TCOON:005:1,2009-03-08T10:00:00Z,27.6346,-97.2370,0.0,3.6,155.0,5.0,'11111222,11111222,11111222' 
TCOON,ioos:station:TCOON:005:1,2009-03-08T11:00:00Z,27.6346,-97.2370,0.0,1.6,166.0,2.3,'11111222,11111222,11111222' 
TCOON,ioos:station:TCOON:005:1,2009-03-08T12:00:00Z,27.6346,-97.2370,0.0,1.2,122.0,1.7,'11111222,11111222,11111222' 
TCOON,ioos:station:TCOON:005:1,2009-03-08T13:00:00Z,27.6346,-97.2370,0.0,4.9,139.0,6.2,'11111222,11111222,11111222' 
TCOON,ioos:station:TCOON:005:1,2009-03-08T14:00:00Z,27.6346,-97.2370,0.0,4.9,144.0,6.1,'11111222,11111222,11111222' 
TCOON,ioos:station:TCOON:005:1,2009-03-08T15:00:00Z,27.6346,-97.2370,0.0,5.0,125.0,6.2,'11111222,11111222,11111222' 
TCOON,ioos:station:TCOON:005:1,2009-03-08T16:00:00Z,27.6346,-97.2370,0.0,5.9,135.0,7.6,'11111222,11111222,11111222' 
TCOON,ioos:station:TCOON:005:1,2009-03-08T17:00:00Z,27.6346,-97.2370,0.0,6.8,148.0,8.6,'11111222,11111222,11111222' 
TCOON,ioos:station:TCOON:005:1,2009-03-08T18:00:00Z,27.6346,-97.2370,0.0,6.1,148.0,9.3,'11111222,11111222,11111222' 
TCOON,ioos:station:TCOON:005:1,2009-03-08T19:00:00Z,27.6346,-97.2370,0.0,6.5,139.0,8.5,'11111222,11111222,11111222' 
TCOON,ioos:station:TCOON:005:1,2009-03-08T20:00:00Z,27.6346,-97.2370,0.0,6.2,124.0,7.4,'11111222,11111222,11111222' 
TCOON,ioos:station:TCOON:005:1,2009-03-08T21:00:00Z,27.6346,-97.2370,0.0,6.3,102.0,7.3,'11111222,11111222,11111222' 
TCOON,ioos:station:TCOON:005:1,2009-03-08T22:00:00Z,27.6346,-97.2370,0.0,6.5,108.0,7.4,'11111222,11111222,11111222' 
TCOON,ioos:station:TCOON:005:1,2009-03-08T23:00:00Z,27.6346,-97.2370,0.0,6.0,92.0,6.7,'11111222,11111222,11111222' 
TCOON,ioos:station:TCOON:005:1,2009-03-09T00:00:00Z,27.6346,-97.2370,0.0,6.7,85.0,7.7,'11111222,11111222,11111222' 
TCOON,ioos:station:TCOON:005:1,2009-03-09T01:00:00Z,27.6346,-97.2370,0.0,6.9,87.0,7.9,'11111222,11111222,11111222' 
TCOON,ioos:station:TCOON:005:1,2009-03-09T02:00:00Z,27.6346,-97.2370,0.0,6.7,100.0,8.1,'11111222,11111222,11111222' 
TCOON,ioos:station:TCOON:005:1,2009-03-09T03:00:00Z,27.6346,-97.2370,0.0,6.1,112.0,7.0,'11111222,11111222,11111222' 
TCOON,ioos:station:TCOON:005:1,2009-03-09T04:00:00Z,27.6346,-97.2370,0.0,5.0,119.0,6.1,'11111222,11111222,11111222' 
TCOON,ioos:station:TCOON:005:1,2009-03-09T05:00:00Z,27.6346,-97.2370,0.0,4.7,132.0,6.7,'11111222,11111222,11111222' 
TCOON,ioos:station:TCOON:005:1,2009-03-09T06:00:00Z,27.6346,-97.2370,0.0,5.5,141.0,7.3,'11111222,11111222,11111222' 
TCOON,ioos:station:TCOON:005:1,2009-03-09T07:00:00Z,27.6346,-97.2370,0.0,4.6,154.0,6.1,'11111222,11111222,11111222' 
TCOON,ioos:station:TCOON:005:1,2009-03-09T08:00:00Z,27.6346,-97.2370,0.0,4.9,151.0,6.2,'11111222,11111222,11111222' 
TCOON,ioos:station:TCOON:005:1,2009-03-09T09:00:00Z,27.6346,-97.2370,0.0,4.4,151.0,6.7,'11111222,11111222,11111222' 
TCOON,ioos:station:TCOON:005:1,2009-03-09T10:00:00Z,27.6346,-97.2370,0.0,4.8,152.0,6.7,'11111222,11111222,11111222' 
TCOON,ioos:station:TCOON:005:1,2009-03-09T11:00:00Z,27.6346,-97.2370,0.0,4.9,152.0,6.3,'11111222,11111222,11111222' 
TCOON,ioos:station:TCOON:005:1,2009-03-09T12:00:00Z,27.6346,-97.2370,0.0,4.5,143.0,5.9,'11111222,11111222,11111222' 